Content
SEND FEEDBACK

Daily
Averages
Monthly
Summary
United States of America

BAYSIDE, NEW YORK


Home > North America > United States > New York
Elevation: 11 feet     Latitude: 40 46N     Longitude: 073 54W

WEATHER
 
SELECT A DAY
Number of Records: 193,997;   Date Range: 1/1/95 - 10/23/14
 
SHARE

PRINT THIS DATA

[ ← Previous Day ]
WEATHER ALMANAC - MAY 14, 2013
[ Next Day → ]
[ °C ]   °F
Weather ElementAverageHighLow
Temperature53.8 °F62.1 °F (5:51 pm)45 °F (5:51 am)
Dewpoint25.5 °F36 °F (10:51 pm)14 °F (5:51 pm)
Humidity37.4 %61 % (3:51 am)15 % (5:51 pm)
Barometer30.08 in30.13 in (8:51 am)30.03 in (5:51 pm)
Wind Speed10.5 mph17.3 mph (6:51 am)
Wind Gust20.7 mph (11:51 am)
Weather ElementAverage
Visibility10 mi
Wind DirectionWNW (278.7 °)

Weather ElementTotal
Precipitation---
Heating Degree Days11.5 (Base 65)
Growing Degree Days3.6 (Base 50)
Averaged from 23 records on May 14, 2013
WEATHER CONDITIONS BREAKOUT
WIND DIRECTION BREAKOUT
WEATHER BY HOUR - MAY 14, 2013
[ °C ]   °F
Local TimeTemperatureDewpointHumidityBarometerVisibilityWind DirectionWind SpeedGust SpeedPrecipitationEventsConditions
1:51 AM46.9 °F32.0 °F56 %30.10 in10.0 miNW (320°)13.8 mphClear
2:51 AM46.9 °F33.1 °F59 %30.10 in10.0 miNW (320°)11.5 mphClear
3:51 AM46.0 °F33.1 °F61 %30.10 in10.0 miWNW (300°)9.2 mphClear
4:51 AM46.0 °F33.1 °F61 %30.10 in10.0 miNW (310°)15.0 mphClear
5:51 AM45.0 °F32.0 °F60 %30.10 in10.0 miNW (310°)13.8 mphClear
6:51 AM46.0 °F30.9 °F56 %30.12 in10.0 miNW (310°)17.3 mphClear
7:51 AM46.9 °F32.0 °F56 %30.12 in10.0 miWNW (300°)10.4 mphPartly Cloudy
8:51 AM50.0 °F30.0 °F46 %30.13 in10.0 miWNW (300°)12.7 mphPartly Cloudy
9:51 AM52.0 °F28.0 °F40 %30.12 in10.0 miNW (310°)9.2 mphPartly Cloudy
10:51 AM53.1 °F26.1 °F35 %30.11 in10.0 miNW (320°)10.4 mphPartly Cloudy
11:51 AM55.0 °F21.9 °F28 %30.10 in10.0 miNW (320°)13.8 mph20.7 mphPartly Cloudy
12:51 PM55.9 °F23.0 °F28 %30.09 in10.0 miNW (310°)9.2 mph16.1 mphScattered Clouds
1:51 PM57.2 °F21.2 °F25 %30.08 in10.0 miWNW (300°)11.5 mph19.6 mphMostly Cloudy
2:51 PM57.9 °F19.9 °F23 %30.06 in10.0 miNNW (330°)10.4 mph18.4 mphMostly Cloudy
3:51 PM60.1 °F15.1 °F17 %30.05 in10.0 miWest (270°)9.2 mph17.3 mphMostly Cloudy
4:51 PM60.1 °F19.9 °F21 %30.04 in10.0 miNW (320°)12.7 mphMostly Cloudy
5:51 PM62.1 °F14.0 °F15 %30.03 in10.0 miWest (280°)10.4 mphScattered Clouds
6:51 PM61.0 °F18.0 °F19 %30.03 in10.0 miWNW (300°)9.2 mphScattered Clouds
7:51 PM60.1 °F16.0 °F18 %30.03 in10.0 miWest (260°)9.2 mphScattered Clouds
8:51 PM59.0 °F17.1 °F20 %30.04 in10.0 miWSW (250°)5.8 mphPartly Cloudy
9:51 PM59.0 °F18.0 °F20 %30.05 in10.0 miCalmPartly Cloudy
10:51 PM55.9 °F36.0 °F47 %30.06 in10.0 miSouth (180°)8.1 mphPartly Cloudy
11:51 PM55.0 °F36.0 °F49 %30.07 in10.0 miSouth (190°)8.1 mphPartly Cloudy
Hourly data recorded from KLGA, located miles away from Bayside, New York







STORIES FROM OUR PARTNERS